This is the latest recevied weather packets stored in our database for station/object W6MAF. If no packets are shown the sender has not sent any weather packets the latest 10 day(s).
| Time | Temp. | Humidity | Pressure | Rain* | Wind** | Luminosity | Snow |
|---|---|---|---|---|---|---|---|
| 1788132225 | 28.89° C | 5% | - | 0 mm | 8.05 m/s, 191° | - | - |
| 1788131928 | 29.44° C | 5% | - | 0 mm | 8.94 m/s, 180° | - | - |
| 1788131630 | 29.44° C | 5% | - | 0 mm | 8.05 m/s, 191° | - | - |
| 1788131332 | 29.44° C | 5% | - | 0 mm | 10.73 m/s, 187° | - | - |
| 1788131031 | 29.44° C | 4% | - | 0 mm | 7.15 m/s, 177° | - | - |
| 1788130733 | 29.44° C | 5% | - | 0 mm | 8.94 m/s, 200° | - | - |
| 1788130435 | 29.44° C | 5% | - | 0 mm | 8.94 m/s, 190° | - | - |
| 1788130138 | 29.44° C | 6% | - | 0 mm | 6.71 m/s, 160° | - | - |
| 1788129894 | 29.44° C | 5% | - | 0 mm | 6.71 m/s, 207° | - | - |
| 1788129840 | 29.44° C | 5% | - | 0 mm | 6.71 m/s, 207° | - | - |
| 1788129542 | 29.44° C | 6% | - | 0 mm | 8.05 m/s, 173° | - | - |
| 1788129241 | 29.44° C | 6% | - | 0 mm | 8.49 m/s, 176° | - | - |
| 1788128943 | 29.44° C | 6% | - | 0 mm | 7.15 m/s, 200° | - | - |
| 1788128646 | 29.44° C | 5% | - | 0 mm | 9.83 m/s, 194° | - | - |
| 1788128348 | 29.44° C | 6% | - | 0 mm | 8.49 m/s, 180° | - | - |
| 1788127753 | 29.44° C | 7% | - | 0 mm | 7.6 m/s, 190° | - | - |
| 1788127154 | 29.44° C | 7% | - | 0 mm | 10.73 m/s, 194° | - | - |
| 1788126856 | 29.44° C | 8% | - | 0 mm | 10.28 m/s, 187° | - | - |
| 1788126559 | 29.44° C | 6% | - | 0 mm | 8.49 m/s, 194° | - | - |
| 1788126262 | 29.44° C | 8% | - | 0 mm | 7.15 m/s, 190° | - | - |
| 1788125963 | 29.44° C | 6% | - | 0 mm | 9.83 m/s, 172° | - | - |
| 1788125676 | 29.44° C | 6% | - | 0 mm | 10.28 m/s, 186° | - | - |
| 1788125364 | 29.44° C | 8% | - | 0 mm | 9.83 m/s, 187° | - | - |
| 1788125067 | 29.44° C | 8% | - | 0 mm | 9.83 m/s, 184° | - | - |
| 1788124471 | 29.44° C | 6% | - | 0 mm | 7.6 m/s, 170° | - | - |
* Rain latest hour (hover to see other rain measurements)
** Current wind speed in m/s (hover to see current wind gust speed)